Weather in Buren-Bay-Khaak

Russia / Tyva Republic     51°14′40″N   95°33′20″E
temp.,
°C
wind,
m/s
gust,
m/s
humid.,
%
clouds,
%
prec.,
mm/h
press.,
hPa
HPBL,
m
29 june, wed
wed2901:00+13sw119284 0.4 100811
04:00+13wsw1194100 0.0 100819
07:00+14sw0189100 0.3 100995
10:00+15s1191100 1.4 1009359
13:00+23ene334299 1.5 10061307
16:00+27ne24260 0.0 10022304
19:00+26ne22210 0.0 10011357
22:00+16ese22460 0.0 100412
30 june, thu
thu3001:00+13e22650 0.0 100410
04:00+10e11780 0.0 100511
07:00+17e22490 0.0 1004227
10:00+27ene332418 0.0 1001947
13:00+33nne14134 0.0 9983875
16:00+34sw761033 0.0 9964534
19:00+32sw46144 0.0 9962278
22:00+21sse112966 0.0 99811
1 july, fri
fri101:00+18e223745 0.0 99813
04:00+16se1143100 0.0 99911
07:00+21s2140100 0.0 1000296
10:00+25ese1235100 0.0 999636
13:00+32nne142068 0.0 9972466
16:00+31nw4621100 0.0 9952260
19:00+26nw6738100 0.0 996437
22:00+16sw3376100 0.0 100149
2 july, sat
sat201:00+14ssw3387100 0.0 100467
04:00+14sw238791 0.2 1005100
07:00+14wsw2382100 0.8 1006335
10:00+14wsw1283100 1.6 1007463
13:00+16ene118689 3.8 1006391
16:00+19nne1267100 3.1 1004475
19:00+18n117231 4.1 1005146
22:00+12nnw11894 0.7 100810
3 july, sun
sun301:00+10n11934 0.7 100810
04:00+9ese1196100 0.0 100710
07:00+11wnw119098 0.0 1007193
10:00+19nnw224554 0.0 10051252
13:00+18wnw654779 0.1 10041289
16:00+21wnw773710 0.2 10031807
19:00+18wnw674119 0.2 10041202
22:00+10sw22680 0.0 100622